Weather History for Fergus Falls, MN

Change the Weather History Date:

Thursday, August 29, 2013

  Actual Average Record
Temperature  
Mean Temperature 82 °F -  
Max Temperature 93 °F 78 °F 95 °F (1973)
Min Temperature 71 °F 56 °F 42 °F (1988)
Cooling Degree Days 17    
Growing Degree Days 32 (Base 50)    
Moisture  
Dew Point 68 °F    
Average Humidity 69    
Maximum Humidity 94    
Minimum Humidity 36    
Precipitation  
Precipitation 0.02 in - - ()
Sea Level Pressure  
Sea Level Pressure 29.88 in    
Wind  
Wind Speed 9 mph (SE)    
Max Wind Speed 17 mph    
Max Gust Speed 25 mph    
Visibility 10 miles    
Events Rain , Thunderstorm    
Averages and records for this station are not official NWS values.
T = Trace of Precipitation, MM = Missing Value Source: NWS Daily Summary

Daily Weather History Graph

Daily Weather History Graph

Search for Another Location

Airport:

Trip Planner

Search our weather history database for the weather conditions in past years. The results will help you decide how hot, cold, wet, or windy it might be!

Date:

Astronomy

Aug. 29, 2013 Rise Set
Actual Time 6:41 AM CDT 8:08 PM CDT
Civil Twilight 6:10 AM CDT 8:39 PM CDT
Nautical Twilight 5:32 AM CDT 9:17 PM CDT
Astronomical Twilight 4:51 AM CDT 9:57 PM CDT
Moon 12:23 AM CDT (8/29) 3:48 PM CDT (8/29)
Length of Visible Light 14h 29m
Length of Day
13h 26m
Last Quarter, 38% of the Moon is Illuminated
Aug 29
Last Quarter
Sep 5
New
Sep 12
First Quarter
Sep 19
Full
Sep 26
Last Quarter

Hourly Weather History & Observations

Time (CDT) Temp. Heat Index Dew Point Humidity Pressure Visibility Wind Dir Wind Speed Gust Speed Precip Events Conditions
12:13 AM 77.0 °F - 69.8 °F 78% 29.95 in 10.0 mi ESE 8.1 mph - N/A   Clear
12:33 AM 77.0 °F - 69.8 °F 78% 29.96 in 10.0 mi ESE 8.1 mph - N/A   Clear
12:53 AM 77.0 °F - 69.8 °F 78% 29.96 in 10.0 mi ESE 8.1 mph - N/A   Clear
1:13 AM 77.0 °F - 69.8 °F 78% 29.96 in 10.0 mi ESE 8.1 mph - N/A   Clear
1:33 AM 75.2 °F - 68.0 °F 78% 29.95 in 10.0 mi SE 8.1 mph - N/A   Clear
1:53 AM 75.2 °F - 68.0 °F 78% 29.95 in 10.0 mi SE 8.1 mph - N/A   Clear
2:13 AM 75.2 °F - 68.0 °F 78% 29.94 in 10.0 mi ESE 9.2 mph - N/A   Clear
2:33 AM 75.2 °F - 68.0 °F 78% 29.95 in 10.0 mi ESE 6.9 mph - N/A   Clear
2:53 AM 77.0 °F - 68.0 °F 74% 29.95 in 10.0 mi SE 6.9 mph - N/A   Scattered Clouds
3:13 AM 75.2 °F - 68.0 °F 78% 29.93 in 10.0 mi SE 8.1 mph - N/A Rain Light Rain
3:33 AM 77.0 °F - 69.8 °F 78% 29.92 in 10.0 mi SE 9.2 mph - N/A Rain Rain
3:53 AM 75.2 °F - 69.8 °F 83% 29.91 in 10.0 mi SE 10.4 mph - N/A   Clear
4:13 AM 77.0 °F - 69.8 °F 78% 29.91 in 10.0 mi SE 6.9 mph - N/A   Clear
4:33 AM 77.0 °F - 69.8 °F 78% 29.91 in 10.0 mi SE 8.1 mph - N/A   Clear
4:53 AM 77.0 °F - 69.8 °F 78% 29.91 in 10.0 mi ESE 5.8 mph - N/A   Clear
5:13 AM 75.2 °F - 69.8 °F 83% 29.91 in 7.0 mi SE 8.1 mph - 0.01 in Rain , Thunderstorm Thunderstorms and Rain
5:33 AM 75.2 °F - 71.6 °F 89% 29.92 in 10.0 mi ESE 5.8 mph - 0.02 in   Scattered Clouds
5:53 AM 75.2 °F - 71.6 °F 89% 29.92 in 10.0 mi SE 6.9 mph - 0.02 in   Clear
6:13 AM 75.2 °F - 71.6 °F 89% 29.91 in 7.0 mi SE 9.2 mph - N/A Rain Rain
6:33 AM 75.2 °F - 71.6 °F 89% 29.89 in 7.0 mi SE 10.4 mph - N/A   Light Drizzle
6:53 AM 75.2 °F - 71.6 °F 89% 29.88 in 7.0 mi SSE 11.5 mph - N/A   Clear
7:13 AM 75.2 °F - 73.4 °F 94% 29.88 in 5.0 mi SSE 12.7 mph - N/A   Clear
7:33 AM 75.2 °F - 73.4 °F 94% 29.89 in 5.0 mi SSE 13.8 mph - N/A   Clear
7:53 AM 75.2 °F - 73.4 °F 94% 29.88 in 5.0 mi SSE 11.5 mph - N/A   Clear
8:13 AM 75.2 °F - - N/A% 29.89 in 5.0 mi SSE 11.5 mph - N/A   Clear
8:33 AM 75.2 °F - 73.4 °F 94% 29.89 in 7.0 mi SSE 10.4 mph - N/A   Clear
8:52 AM 77.0 °F - 73.4 °F 89% 29.89 in 7.0 mi South 9.2 mph - N/A   Clear
9:13 AM 77.0 °F - 73.4 °F 89% 29.92 in 10.0 mi SSW 4.6 mph - N/A   Clear
9:33 AM 78.8 °F - 73.4 °F 83% 29.90 in 10.0 mi SSE 9.2 mph - N/A   Clear
9:53 AM 78.8 °F - 73.4 °F 83% 29.89 in 10.0 mi SSE 9.2 mph - N/A Thunderstorm Clear
10:13 AM 80.6 °F 84.6 °F 71.6 °F 74% 29.92 in 10.0 mi SSW 5.8 mph - N/A   Clear
10:33 AM 80.6 °F 83.9 °F 69.8 °F 70% 29.93 in 10.0 mi Calm Calm - N/A   Clear
10:53 AM 78.8 °F - 69.8 °F 74% 29.93 in 10.0 mi North 3.5 mph - N/A   Clear
11:13 AM 80.6 °F 83.9 °F 69.8 °F 70% 29.87 in 10.0 mi ESE 13.8 mph - N/A   Clear
11:33 AM 80.6 °F 83.9 °F 69.8 °F 70% 29.85 in 10.0 mi SE 16.1 mph - N/A   Clear
11:53 AM 82.4 °F 85.4 °F 68.0 °F 62% 29.85 in 10.0 mi SE 13.8 mph - N/A   Clear
12:13 PM 84.2 °F 87.3 °F 68.0 °F 58% 29.85 in 10.0 mi SSE 11.5 mph 20.7 mph N/A   Clear
12:33 PM 87.8 °F 91.4 °F 68.0 °F 52% 29.84 in 10.0 mi SSE 13.8 mph - N/A   Clear
12:53 PM 87.8 °F 90.4 °F 66.2 °F 49% 29.84 in 10.0 mi South 16.1 mph - N/A   Clear
1:13 PM 89.6 °F 92.2 °F 66.2 °F 46% 29.84 in 10.0 mi South 16.1 mph - N/A   Clear
1:32 PM 91.4 °F 93.2 °F 64.4 °F 41% 29.83 in 10.0 mi SSW 15.0 mph - N/A   Clear
1:53 PM 89.6 °F 91.1 °F 64.4 °F 43% 29.82 in 10.0 mi South 15.0 mph - N/A   Clear
2:13 PM 93.2 °F 94.1 °F 62.6 °F 36% 29.83 in 10.0 mi SSW 15.0 mph - N/A   Clear
2:33 PM 89.6 °F 90.1 °F 62.6 °F 40% 29.83 in 10.0 mi SSW 16.1 mph 23.0 mph N/A   Clear
2:53 PM 91.4 °F 93.2 °F 64.4 °F 41% 29.82 in 10.0 mi SW 15.0 mph 20.7 mph N/A   Clear
3:13 PM 93.2 °F 94.9 °F 64.4 °F 38% 29.82 in 10.0 mi SSW 11.5 mph 18.4 mph N/A   Clear
3:32 PM 93.2 °F 94.9 °F 64.4 °F 38% 29.81 in 10.0 mi SW 15.0 mph 20.7 mph N/A   Clear
3:53 PM 93.2 °F 94.9 °F 64.4 °F 38% 29.81 in 10.0 mi West 12.7 mph - N/A   Scattered Clouds
4:13 PM 93.2 °F 94.9 °F 64.4 °F 38% 29.81 in 10.0 mi WSW 9.2 mph - N/A   Scattered Clouds
4:32 PM 91.4 °F 94.0 °F 66.2 °F 43% 29.80 in 10.0 mi West 8.1 mph 20.7 mph N/A   Scattered Clouds
4:53 PM 93.2 °F 96.2 °F 66.2 °F 41% 29.80 in 10.0 mi West 9.2 mph - N/A   Mostly Cloudy
5:13 PM 91.4 °F 94.0 °F 66.2 °F 43% 29.80 in 10.0 mi NW 6.9 mph - N/A   Mostly Cloudy
5:33 PM 89.6 °F 93.4 °F 68.0 °F 49% 29.80 in 10.0 mi North 11.5 mph 17.3 mph N/A   Scattered Clouds
5:53 PM 89.6 °F 94.7 °F 69.8 °F 52% 29.81 in 10.0 mi NNW 16.1 mph 19.6 mph N/A   Clear
6:13 PM 87.8 °F 92.6 °F 69.8 °F 55% 29.81 in 10.0 mi NNW 10.4 mph - N/A   Clear
6:33 PM 86.0 °F 90.4 °F 69.8 °F 58% 29.81 in 10.0 mi North 10.4 mph 17.3 mph N/A   Clear
6:53 PM 86.0 °F 90.4 °F 69.8 °F 58% 29.82 in 10.0 mi NNW 10.4 mph - N/A   Clear
7:13 PM 84.2 °F 87.3 °F 68.0 °F 58% 29.82 in 10.0 mi North 10.4 mph - N/A   Clear
7:33 PM 82.4 °F 86.3 °F 69.8 °F 66% 29.83 in 10.0 mi North 9.2 mph - N/A   Clear
7:53 PM 82.4 °F 86.3 °F 69.8 °F 66% 29.83 in 10.0 mi North 10.4 mph - N/A   Clear
8:13 PM 80.6 °F 83.9 °F 69.8 °F 70% 29.84 in 10.0 mi North 17.3 mph 25.3 mph N/A   Clear
8:33 PM 78.8 °F - 66.2 °F 65% 29.85 in 10.0 mi North 9.2 mph 18.4 mph N/A   Clear
8:53 PM 78.8 °F - 66.2 °F 65% 29.86 in 10.0 mi North 6.9 mph - N/A   Clear
9:13 PM 75.2 °F - 66.2 °F 73% 29.86 in 10.0 mi North 8.1 mph - N/A   Clear
9:33 PM 75.2 °F - 66.2 °F 73% 29.87 in 10.0 mi North 9.2 mph - N/A   Clear
9:53 PM 73.4 °F - 66.2 °F 78% 29.87 in 10.0 mi North 6.9 mph - N/A   Clear
10:13 PM 73.4 °F - 66.2 °F 78% 29.88 in 10.0 mi North 8.1 mph - N/A   Clear
10:33 PM 73.4 °F - 66.2 °F 78% 29.88 in 10.0 mi North 9.2 mph - N/A   Clear
10:53 PM 73.4 °F - 64.4 °F 73% 29.89 in 10.0 mi North 6.9 mph - N/A   Clear
11:13 PM 71.6 °F - 64.4 °F 78% 29.89 in 10.0 mi North 5.8 mph - N/A   Clear
11:33 PM 71.6 °F - 64.4 °F 78% 29.89 in 10.0 mi North 4.6 mph - N/A   Clear
11:53 PM 73.4 °F - 64.4 °F 73% 29.90 in 10.0 mi North 5.8 mph - N/A   Clear